| time (UTC) | temp C | wind direction | speed KPH | gust KPH | rain 1hr cm | rain 24hr cm | rain mn cm | humidity % | barometer mb |
| 20260902220029 | 15 | 290 | 0.0 | 4.8 | 0.10 | 0.23 | 0.20 | 91 | 1005.4 |
| 20260902214539 | 15 | 263 | 3.2 | 9.7 | 0.10 | 0.20 | 0.18 | 90 | 1005.3 |
| 20260902213032 | 15 | 266 | 1.6 | 8.0 | 0.10 | 0.18 | 0.15 | 90 | 1005.3 |
| 20260902211530 | 15 | 283 | 1.6 | 11.3 | 0.10 | 0.15 | 0.13 | 89 | 1005.3 |
| 20260902210033 | 15 | 338 | 3.2 | 6.4 | 0.08 | 0.13 | 0.10 | 88 | 1005.4 |
| 20260902204529 | 15 | 1 | 1.6 | 8.0 | 0.05 | 0.13 | 0.08 | 87 | 1005.6 |
| 20260902201530 | 15 | 319 | 4.8 | 9.7 | 0.05 | 0.08 | 0.05 | 84 | 1005.6 |
| 20260902200030 | 15 | 328 | 4.8 | 11.3 | 0.05 | 0.08 | 0.05 | 81 | 1005.5 |
| 20260902194608 | 16 | 320 | 1.6 | 9.7 | 0.05 | 0.08 | 0.03 | 78 | 1005.6 |
| 20260902190030 | 18 | 200 | 4.8 | 8.0 | 0.00 | 0.03 | 0.00 | 68 | 1005.3 |
| 20260902184530 | 18 | 192 | 4.8 | 8.0 | 0.00 | 0.03 | 0.00 | 65 | 1005.2 |
| 20260902183032 | 19 | 215 | 3.2 | 8.0 | 0.00 | 0.03 | 0.00 | 64 | 1005.1 |
| 20260902181544 | 18 | 203 | 0.0 | 6.4 | 0.00 | 0.03 | 0.00 | 65 | 1005.2 |
| 20260902180107 | 18 | 216 | 1.6 | 6.4 | 0.00 | 0.03 | 0.00 | 64 | 1005.3 |
| 20260902174530 | 20 | 261 | 3.2 | 9.7 | 0.00 | 0.03 | 0.00 | 62 | 1005.3 |
| 20260902173032 | 20 | 265 | 4.8 | 12.9 | 0.00 | 0.03 | 0.00 | 63 | 1005.3 |
| 20260902171529 | 20 | 260 | 6.4 | 14.5 | 0.00 | 0.03 | 0.00 | 61 | 1005.5 |
| 20260902170030 | 20 | 278 | 3.2 | 9.7 | 0.00 | 0.03 | 0.00 | 63 | 1005.6 |
| 20260902164529 | 19 | 262 | 1.6 | 6.4 | 0.00 | 0.03 | 0.00 | 68 | 1005.9 |
| 20260902163030 | 16 | 351 | 1.6 | 4.8 | 0.00 | 0.03 | 0.00 | 72 | 1006.2 |
| 20260902161531 | 16 | 286 | 0.0 | 3.2 | 0.00 | 0.03 | 0.00 | 71 | 1006.4 |
| 20260902160029 | 17 | 275 | 0.0 | 4.8 | 0.00 | 0.03 | 0.00 | 71 | 1006.6 |
| 20260902154529 | 16 | 38 | 3.2 | 9.7 | 0.00 | 0.03 | 0.00 | 74 | 1006.7 |
| 20260902153109 | 16 | 21 | 4.8 | 9.7 | 0.00 | 0.03 | 0.00 | 78 | 1006.8 |
| 20260902150029 | 14 | 32 | 8.0 | 17.7 | 0.00 | 0.03 | 0.00 | 80 | 1007.1 |
| 20260902144608 | 13 | 16 | 9.7 | 17.7 | 0.00 | 0.03 | 0.00 | 82 | 1007.1 |
| 20260902141606 | 13 | 335 | 6.4 | 12.9 | 0.00 | 0.03 | 0.00 | 82 | 1007.4 |
| 20260902140031 | 12 | 341 | 6.4 | 11.3 | 0.00 | 0.03 | 0.00 | 82 | 1007.4 |
| 20260902134530 | 12 | 15 | 4.8 | 14.5 | 0.00 | 0.03 | 0.00 | 82 | 1007.4 |
| 20260902133034 | 12 | 68 | 3.2 | 6.4 | 0.00 | 0.03 | 0.00 | 82 | 1007.6 |
| 20260902131534 | 12 | 56 | 4.8 | 11.3 | 0.00 | 0.03 | 0.00 | 83 | 1007.6 |
| 20260902130028 | 12 | 47 | 3.2 | 9.7 | 0.00 | 0.03 | 0.00 | 83 | 1007.5 |
| 20260902124532 | 12 | 56 | 1.6 | 4.8 | 0.00 | 0.03 | 0.00 | 82 | 1007.5 |
| 20260902123109 | 12 | 110 | 1.6 | 4.8 | 0.00 | 0.03 | 0.00 | 82 | 1007.7 |
| 20260902120106 | 12 | 298 | 1.6 | 14.5 | 0.00 | 0.03 | 0.00 | 80 | 1007.7 |
| 20260902114530 | 13 | 255 | 6.4 | 17.7 | 0.00 | 0.03 | 0.00 | 80 | 1007.8 |
| 20260902113034 | 13 | 250 | 11.3 | 22.5 | 0.00 | 0.03 | 0.00 | 80 | 1007.7 |
| 20260902111531 | 13 | 249 | 11.3 | 19.3 | 0.00 | 0.03 | 0.00 | 81 | 1007.7 |
| 20260902110031 | 13 | 256 | 11.3 | 20.9 | 0.00 | 0.03 | 0.00 | 81 | 1007.7 |
| 20260902104531 | 13 | 259 | 12.9 | 25.7 | 0.00 | 0.03 | 0.00 | 82 | 1007.8 |
| 20260902103033 | 13 | 254 | 11.3 | 24.1 | 0.00 | 0.03 | 0.00 | 82 | 1008.0 |
| 20260902101531 | 13 | 259 | 9.7 | 24.1 | 0.00 | 0.03 | 0.00 | 82 | 1008.1 |
| 20260902094535 | 13 | 251 | 9.7 | 17.7 | 0.00 | 0.03 | 0.00 | 82 | 1008.2 |
| 20260902093038 | 13 | 252 | 9.7 | 22.5 | 0.00 | 0.03 | 0.00 | 83 | 1008.3 |
| 20260902091531 | 13 | 246 | 9.7 | 17.7 | 0.00 | 0.03 | 0.00 | 83 | 1008.4 |
| 20260902090031 | 13 | 245 | 8.0 | 17.7 | 0.00 | 0.03 | 0.00 | 83 | 1008.3 |
| 20260902084531 | 13 | 236 | 8.0 | 11.3 | 0.00 | 0.03 | 0.00 | 82 | 1008.3 |
| 20260902081531 | 13 | 250 | 9.7 | 17.7 | 0.00 | 0.03 | 0.00 | 81 | 1008.3 |
| 20260902074530 | 13 | 244 | 9.7 | 17.7 | 0.00 | 0.03 | 0.00 | 79 | 1008.5 |
| 20260902071531 | 15 | 239 | 14.5 | 22.5 | 0.00 | 0.03 | 0.00 | 75 | 1008.6 |
| 20260902070039 | 15 | 237 | 16.1 | 27.4 | 0.00 | 0.03 | 0.00 | 75 | 1008.9 |
| 20260902063030 | 15 | 238 | 16.1 | 29.0 | 0.00 | 0.03 | 0.03 | 73 | 1009.0 |
| 20260902061535 | 16 | 237 | 17.7 | 25.7 | 0.00 | 0.03 | 0.03 | 73 | 1009.1 |
| 20260902060031 | 16 | 245 | 19.3 | 37.0 | 0.00 | 0.03 | 0.03 | 72 | 1009.0 |
| 20260902054529 | 16 | 247 | 17.7 | 37.0 | 0.00 | 0.03 | 0.03 | 72 | 1008.9 |
| 20260902053030 | 16 | 246 | 16.1 | 27.4 | 0.00 | 0.03 | 0.03 | 72 | 1009.1 |
| 20260902050029 | 16 | 237 | 16.1 | 25.7 | 0.00 | 0.03 | 0.03 | 70 | 1008.7 |
| 20260902044606 | 16 | 242 | 16.1 | 32.2 | 0.00 | 0.03 | 0.03 | 70 | 1008.5 |
| 20260902041530 | 16 | 251 | 17.7 | 32.2 | 0.00 | 0.03 | 0.03 | 69 | 1008.3 |
| 20260902040033 | 16 | 256 | 16.1 | 29.0 | 0.00 | 0.03 | 0.03 | 70 | 1008.1 |
| 20260902034646 | 16 | 253 | 14.5 | 24.1 | 0.00 | 0.03 | 0.03 | 71 | 1008.0 |
| 20260902033029 | 16 | 252 | 11.3 | 20.9 | 0.00 | 0.03 | 0.03 | 71 | 1007.9 |
| 20260902031531 | 16 | 254 | 9.7 | 20.9 | 0.00 | 0.03 | 0.03 | 71 | 1007.9 |
| 20260902030148 | 16 | 242 | 12.9 | 20.9 | 0.00 | 0.03 | 0.03 | 70 | 1008.0 |
| 20260902024531 | 16 | 232 | 14.5 | 22.5 | 0.00 | 0.03 | 0.03 | 68 | 1007.9 |
| 20260902023030 | 16 | 244 | 17.7 | 35.4 | 0.00 | 0.03 | 0.03 | 67 | 1007.6 |
| 20260902021532 | 17 | 243 | 17.7 | 33.8 | 0.00 | 0.03 | 0.03 | 66 | 1007.5 |
| 20260902020030 | 17 | 250 | 17.7 | 33.8 | 0.00 | 0.03 | 0.03 | 64 | 1007.5 |
| 20260902013033 | 18 | 243 | 20.9 | 32.2 | 0.00 | 0.03 | 0.03 | 60 | 1007.3 |
| 20260902011530 | 20 | 249 | 19.3 | 35.4 | 0.00 | 0.03 | 0.03 | 59 | 1007.2 |
| 20260902010029 | 20 | 262 | 17.7 | 38.6 | 0.00 | 0.03 | 0.03 | 59 | 1007.1 |
| 20260902004533 | 20 | 260 | 19.3 | 35.4 | 0.00 | 0.03 | 0.03 | 60 | 1007.1 |
| 20260902003029 | 18 | 252 | 20.9 | 40.2 | 0.00 | 0.03 | 0.03 | 61 | 1007.0 |
| 20260902001533 | 19 | 253 | 20.9 | 38.6 | 0.00 | 0.03 | 0.03 | 61 | 1006.8 |
| 20260902000032 | 18 | 254 | 19.3 | 41.8 | 0.00 | 0.03 | 0.03 | 62 | 1007.1 |
| 20260901234606 | 19 | 250 | 24.1 | 53.1 | 0.00 | 0.03 | 0.03 | 61 | 1007.1 |
| 20260901233032 | 20 | 251 | 22.5 | 37.0 | 0.00 | 0.03 | 0.03 | 60 | 1007.1 |
| 20260901231532 | 20 | 259 | 24.1 | 32.2 | 0.00 | 0.03 | 0.03 | 60 | 1007.0 |
| 20260901230030 | 21 | 259 | 25.7 | 49.9 | 0.00 | 0.03 | 0.03 | 56 | 1007.0 |
| 20260901224533 | 22 | 254 | 27.4 | 48.3 | 0.00 | 0.03 | 0.03 | 55 | 1006.8 |
| 20260901223030 | 22 | 266 | 25.7 | 49.9 | 0.00 | 0.03 | 0.03 | 55 | 1006.5 |